Time,TemperatureF,DewpointF,PressureIn,WindDirection,WindDirectionDegrees,WindSpeedMPH,WindSpeedGustMPH,Humidity,HourlyPrecipIn,Conditions,Clouds,dailyrainin,SoftwareType,DateUTC
2013-05-13 00:02:00,52.0,46.0,30.05,East,88,0.0,-999.0,79,-99.99,,,-99.99,,2013-05-13 05:02:00,
2013-05-13 00:12:00,52.0,46.0,30.05,East,88,0.0,-999.0,79,-99.99,,,-99.99,,2013-05-13 05:12:00,
2013-05-13 00:21:00,51.0,45.0,30.05,East,88,0.0,-999.0,81,-99.99,,,-99.99,,2013-05-13 05:21:00,
2013-05-13 00:32:00,51.0,45.0,30.05,East,88,0.0,-999.0,81,-99.99,,,-99.99,,2013-05-13 05:32:00,
2013-05-13 00:42:00,51.0,45.0,30.05,East,88,0.0,-999.0,81,-99.99,,,-99.99,,2013-05-13 05:42:00,
2013-05-13 00:52:00,50.0,45.0,30.05,East,88,0.0,-999.0,82,-99.99,,,-99.99,,2013-05-13 05:52:00,
2013-05-13 01:01:00,50.0,45.0,30.05,East,88,0.0,-999.0,82,-99.99,,,-99.99,,2013-05-13 06:01:00,
2013-05-13 01:11:00,50.0,45.0,30.05,East,88,0.0,-999.0,82,-99.99,,,-99.99,,2013-05-13 06:11:00,
2013-05-13 01:21:00,49.0,45.0,30.05,East,88,0.0,-999.0,85,-99.99,,,-99.99,,2013-05-13 06:21:00,
2013-05-13 01:31:00,49.0,45.0,30.04,East,88,0.0,-999.0,85,-99.99,,,-99.99,,2013-05-13 06:31:00,
2013-05-13 01:42:00,49.0,45.0,30.04,East,88,0.0,-999.0,86,-99.99,,,-99.99,,2013-05-13 06:42:00,
2013-05-13 01:52:00,49.0,45.0,30.04,East,88,0.0,-999.0,86,-99.99,,,-99.99,,2013-05-13 06:52:00,
2013-05-13 02:01:00,49.0,45.0,30.04,East,88,0.0,-999.0,85,-99.99,,,-99.99,,2013-05-13 07:01:00,
2013-05-13 02:11:00,49.0,45.0,30.04,East,88,0.0,-999.0,85,-99.99,,,-99.99,,2013-05-13 07:11:00,
2013-05-13 02:22:00,50.0,46.0,30.04,East,88,0.0,-999.0,85,-99.99,,,-99.99,,2013-05-13 07:22:00,
2013-05-13 02:31:00,49.0,45.0,30.05,East,88,0.0,-999.0,86,-99.99,,,-99.99,,2013-05-13 07:31:00,
2013-05-13 02:41:00,49.0,45.0,30.04,East,88,0.0,-999.0,85,-99.99,,,-99.99,,2013-05-13 07:41:00,
2013-05-13 02:52:00,49.0,45.0,30.04,East,88,0.0,-999.0,85,-99.99,,,-99.99,,2013-05-13 07:52:00,
2013-05-13 03:02:00,49.0,45.0,30.03,East,88,0.0,-999.0,86,-99.99,,,-99.99,,2013-05-13 08:02:00,
2013-05-13 03:11:00,49.0,45.0,30.03,East,88,0.0,-999.0,86,-99.99,,,-99.99,,2013-05-13 08:11:00,
2013-05-13 03:21:00,50.0,45.0,30.03,East,88,0.0,-999.0,83,-99.99,,,-99.99,,2013-05-13 08:21:00,
2013-05-13 03:31:00,50.0,45.0,30.03,East,88,0.0,-999.0,84,-99.99,,,-99.99,,2013-05-13 08:31:00,
2013-05-13 03:42:00,50.0,45.0,30.03,East,88,0.0,-999.0,84,-99.99,,,-99.99,,2013-05-13 08:42:00,
2013-05-13 03:52:00,49.0,45.0,30.03,East,88,0.0,-999.0,85,-99.99,,,-99.99,,2013-05-13 08:52:00,
2013-05-13 04:01:00,48.0,44.0,30.03,East,88,0.0,-999.0,86,-99.99,,,-99.99,,2013-05-13 09:01:00,
2013-05-13 04:11:00,48.0,44.0,30.03,East,88,0.0,-999.0,86,-99.99,,,-99.99,,2013-05-13 09:11:00,
2013-05-13 04:21:00,48.0,44.0,30.03,East,88,0.0,-999.0,87,-99.99,,,-99.99,,2013-05-13 09:21:00,
2013-05-13 04:33:00,47.0,44.0,30.03,East,88,0.0,-999.0,88,-99.99,,,-99.99,,2013-05-13 09:33:00,
2013-05-13 04:42:00,47.0,44.0,30.03,East,88,0.0,-999.0,88,-99.99,,,-99.99,,2013-05-13 09:42:00,
2013-05-13 04:52:00,47.0,44.0,30.03,East,88,0.0,-999.0,89,-99.99,,,-99.99,,2013-05-13 09:52:00,
2013-05-13 05:02:00,47.0,44.0,30.05,East,88,0.0,-999.0,88,-99.99,,,-99.99,,2013-05-13 10:02:00,
2013-05-13 05:12:00,47.0,44.0,30.05,East,88,0.0,-999.0,88,-99.99,,,-99.99,,2013-05-13 10:12:00,
2013-05-13 05:22:00,47.0,44.0,30.04,East,88,0.0,-999.0,88,-99.99,,,-99.99,,2013-05-13 10:22:00,
2013-05-13 05:32:00,48.0,44.0,30.03,East,88,0.0,-999.0,87,-99.99,,,-99.99,,2013-05-13 10:32:00,
2013-05-13 05:42:00,48.0,44.0,30.03,East,88,0.0,-999.0,87,-99.99,,,-99.99,,2013-05-13 10:42:00,
2013-05-13 05:52:00,48.0,44.0,30.04,East,88,0.0,-999.0,87,-99.99,,,-99.99,,2013-05-13 10:52:00,
2013-05-13 06:02:00,48.0,44.0,30.04,East,88,0.0,-999.0,87,-99.99,,,-99.99,,2013-05-13 11:02:00,
2013-05-13 06:12:00,48.0,44.0,30.04,East,88,0.0,-999.0,87,-99.99,,,-99.99,,2013-05-13 11:12:00,
2013-05-13 06:21:00,48.0,44.0,30.05,East,88,0.0,-999.0,87,-99.99,,,-99.99,,2013-05-13 11:21:00,
2013-05-13 06:32:00,48.0,44.0,30.05,East,88,0.0,-999.0,86,-99.99,,,-99.99,,2013-05-13 11:32:00,
2013-05-13 06:42:00,48.0,44.0,30.05,East,88,0.0,-999.0,86,-99.99,,,-99.99,,2013-05-13 11:42:00,
2013-05-13 06:52:00,49.0,45.0,30.04,East,88,0.0,-999.0,87,-99.99,,,-99.99,,2013-05-13 11:52:00,
2013-05-13 07:01:00,49.0,45.0,30.04,East,88,0.0,-999.0,86,-99.99,,,-99.99,,2013-05-13 12:01:00,
2013-05-13 07:11:00,49.0,45.0,30.04,East,88,0.0,-999.0,86,-99.99,,,-99.99,,2013-05-13 12:11:00,
2013-05-13 07:21:00,50.0,46.0,30.03,East,88,0.0,-999.0,85,-99.99,,,-99.99,,2013-05-13 12:21:00,
2013-05-13 07:32:00,50.0,46.0,30.04,East,88,0.0,-999.0,85,-99.99,,,-99.99,,2013-05-13 12:32:00,
2013-05-13 07:42:00,50.0,46.0,30.04,East,88,0.0,-999.0,85,-99.99,,,-99.99,,2013-05-13 12:42:00,
2013-05-13 07:52:00,51.0,46.0,30.04,East,88,1.0,-999.0,84,-99.99,,,-99.99,,2013-05-13 12:52:00,
2013-05-13 08:01:00,53.0,47.0,30.04,East,88,0.0,-999.0,81,-99.99,,,-99.99,,2013-05-13 13:01:00,
2013-05-13 08:11:00,53.0,47.0,30.04,East,88,0.0,-999.0,81,-99.99,,,-99.99,,2013-05-13 13:11:00,
2013-05-13 08:21:00,55.0,48.0,30.04,East,90,1.0,-999.0,76,-99.99,,,-99.99,,2013-05-13 13:21:00,
2013-05-13 08:31:00,56.0,47.0,30.03,SE,138,3.0,-999.0,73,-99.99,,,-99.99,,2013-05-13 13:31:00,
2013-05-13 08:41:00,59.0,48.0,30.03,SSE,150,3.0,-999.0,68,-99.99,,,-99.99,,2013-05-13 13:41:00,
2013-05-13 08:52:00,59.0,48.0,30.03,SSE,150,3.0,-999.0,68,-99.99,,,-99.99,,2013-05-13 13:52:00,
2013-05-13 09:02:00,60.0,48.0,30.03,SSW,192,3.0,-999.0,65,-99.99,,,-99.99,,2013-05-13 14:02:00,
2013-05-13 09:11:00,60.0,48.0,30.03,SSW,192,3.0,-999.0,65,-99.99,,,-99.99,,2013-05-13 14:11:00,
2013-05-13 09:22:00,62.0,49.0,30.02,SSE,165,4.0,-999.0,62,-99.99,,,-99.99,,2013-05-13 14:22:00,
2013-05-13 09:31:00,63.0,50.0,30.02,South,178,4.0,-999.0,62,-99.99,,,-99.99,,2013-05-13 14:31:00,
2013-05-13 09:41:00,63.0,50.0,30.02,South,178,4.0,-999.0,62,-99.99,,,-99.99,,2013-05-13 14:41:00,
2013-05-13 09:52:00,65.0,48.0,30.01,South,171,5.0,-999.0,55,-99.99,,,-99.99,,2013-05-13 14:52:00,
2013-05-13 10:01:00,66.0,48.0,30.01,SSW,212,7.0,-999.0,52,-99.99,,,-99.99,,2013-05-13 15:01:00,
2013-05-13 10:11:00,66.0,48.0,30.01,SSW,212,7.0,-999.0,52,-99.99,,,-99.99,,2013-05-13 15:11:00,
2013-05-13 10:21:00,68.0,48.0,30.01,WSW,255,6.0,-999.0,49,-99.99,,,-99.99,,2013-05-13 15:21:00,
2013-05-13 10:31:00,70.0,45.0,30.01,WSW,258,6.0,-999.0,41,-99.99,,,-99.99,,2013-05-13 15:31:00,
2013-05-13 10:42:00,70.0,45.0,30.01,WSW,258,6.0,-999.0,41,-99.99,,,-99.99,,2013-05-13 15:42:00,
2013-05-13 10:53:00,71.0,47.0,30.01,WSW,252,5.0,-999.0,43,-99.99,,,-99.99,,2013-05-13 15:53:00,
2013-05-13 11:03:00,71.0,45.0,30.01,SE,144,5.0,-999.0,39,-99.99,,,-99.99,,2013-05-13 16:03:00,
2013-05-13 11:11:00,71.0,45.0,30.01,SE,144,5.0,-999.0,39,-99.99,,,-99.99,,2013-05-13 16:11:00,
2013-05-13 11:21:00,71.0,46.0,30.01,SSW,205,7.0,-999.0,41,-99.99,,,-99.99,,2013-05-13 16:21:00,
2013-05-13 11:33:00,71.0,48.0,30.01,SW,223,7.0,-999.0,44,-99.99,,,-99.99,,2013-05-13 16:33:00,
2013-05-13 11:42:00,71.0,47.0,30.01,SSW,208,7.0,-999.0,42,-99.99,,,-99.99,,2013-05-13 16:42:00,
2013-05-13 11:52:00,71.0,47.0,30.01,SSW,208,7.0,-999.0,42,-99.99,,,-99.99,,2013-05-13 16:52:00,
2013-05-13 12:02:00,72.0,48.0,30.01,South,184,6.0,-999.0,43,-99.99,,,-99.99,,2013-05-13 17:02:00,
2013-05-13 12:12:00,72.0,48.0,30.01,South,184,6.0,-999.0,43,-99.99,,,-99.99,,2013-05-13 17:12:00,
2013-05-13 12:21:00,73.0,49.0,30.00,SSW,211,6.0,-999.0,42,-99.99,,,-99.99,,2013-05-13 17:21:00,
2013-05-13 12:32:00,73.0,50.0,29.99,SSW,213,6.0,-999.0,44,-99.99,,,-99.99,,2013-05-13 17:32:00,
2013-05-13 12:42:00,73.0,50.0,29.99,SSW,213,6.0,-999.0,44,-99.99,,,-99.99,,2013-05-13 17:42:00,
2013-05-13 12:54:00,74.0,50.0,29.99,SSW,201,6.0,-999.0,43,-99.99,,,-99.99,,2013-05-13 17:54:00,
2013-05-13 13:03:00,75.0,51.0,29.98,SSW,208,5.0,-999.0,43,-99.99,,,-99.99,,2013-05-13 18:03:00,
2013-05-13 13:12:00,75.0,51.0,29.98,SSW,208,5.0,-999.0,43,-99.99,,,-99.99,,2013-05-13 18:12:00,
2013-05-13 13:23:00,76.0,51.0,29.98,SSW,204,5.0,-999.0,41,-99.99,,,-99.99,,2013-05-13 18:23:00,
2013-05-13 13:32:00,75.0,50.0,29.98,WSW,242,7.0,-999.0,42,-99.99,,,-99.99,,2013-05-13 18:32:00,
2013-05-13 13:42:00,76.0,52.0,29.98,West,281,7.0,-999.0,43,-99.99,,,-99.99,,2013-05-13 18:42:00,
2013-05-13 13:52:00,76.0,52.0,29.98,West,281,7.0,-999.0,43,-99.99,,,-99.99,,2013-05-13 18:52:00,
2013-05-13 14:01:00,76.0,52.0,29.98,WSW,246,6.0,-999.0,43,-99.99,,,-99.99,,2013-05-13 19:01:00,
2013-05-13 14:11:00,76.0,52.0,29.98,WSW,246,6.0,-999.0,43,-99.99,,,-99.99,,2013-05-13 19:11:00,
2013-05-13 14:21:00,77.0,52.0,29.97,WNW,285,6.0,-999.0,42,-99.99,,,-99.99,,2013-05-13 19:21:00,
2013-05-13 14:32:00,77.0,51.0,29.97,SW,236,6.0,-999.0,41,-99.99,,,-99.99,,2013-05-13 19:32:00,
2013-05-13 14:44:00,77.0,53.0,29.97,SW,217,5.0,-999.0,43,-99.99,,,-99.99,,2013-05-13 19:44:00,
2013-05-13 14:53:00,77.0,53.0,29.97,SW,217,5.0,-999.0,43,-99.99,,,-99.99,,2013-05-13 19:53:00,
2013-05-13 15:01:00,78.0,54.0,29.97,SW,218,5.0,-999.0,43,-99.99,,,-99.99,,2013-05-13 20:01:00,
2013-05-13 15:11:00,78.0,54.0,29.97,SW,218,5.0,-999.0,43,-99.99,,,-99.99,,2013-05-13 20:11:00,
2013-05-13 15:23:00,78.0,52.0,29.96,WSW,255,6.0,-999.0,41,-99.99,,,-99.99,,2013-05-13 20:23:00,
2013-05-13 15:33:00,79.0,55.0,29.96,SSW,209,5.0,-999.0,43,-99.99,,,-99.99,,2013-05-13 20:33:00,
2013-05-13 15:44:00,79.0,55.0,29.96,SSW,209,5.0,-999.0,43,-99.99,,,-99.99,,2013-05-13 20:44:00,
2013-05-13 15:53:00,79.0,52.0,29.96,SSW,198,5.0,-999.0,39,-99.99,,,-99.99,,2013-05-13 20:53:00,
2013-05-13 16:03:00,79.0,53.0,29.94,SW,227,6.0,-999.0,40,-99.99,,,-99.99,,2013-05-13 21:03:00,
2013-05-13 16:14:00,79.0,53.0,29.94,SW,227,6.0,-999.0,40,-99.99,,,-99.99,,2013-05-13 21:14:00,
2013-05-13 16:23:00,80.0,54.0,29.94,SW,223,5.0,-999.0,41,-99.99,,,-99.99,,2013-05-13 21:23:00,
2013-05-13 16:33:00,79.0,53.0,29.94,WSW,239,6.0,-999.0,40,-99.99,,,-99.99,,2013-05-13 21:33:00,
2013-05-13 16:43:00,79.0,53.0,29.94,WSW,239,6.0,-999.0,40,-99.99,,,-99.99,,2013-05-13 21:43:00,
2013-05-13 16:53:00,80.0,54.0,29.94,SSW,209,5.0,-999.0,41,-99.99,,,-99.99,,2013-05-13 21:53:00,
2013-05-13 17:02:00,80.0,55.0,29.93,West,266,3.0,-999.0,42,-99.99,,,-99.99,,2013-05-13 22:02:00,
2013-05-13 17:12:00,80.0,55.0,29.93,West,266,3.0,-999.0,42,-99.99,,,-99.99,,2013-05-13 22:12:00,
2013-05-13 17:23:00,80.0,55.0,29.93,WSW,250,4.0,-999.0,43,-99.99,,,-99.99,,2013-05-13 22:23:00,
2013-05-13 17:32:00,81.0,55.0,29.93,West,279,4.0,-999.0,41,-99.99,,,-99.99,,2013-05-13 22:32:00,
2013-05-13 17:42:00,80.0,55.0,29.93,WSW,244,5.0,-999.0,43,-99.99,,,-99.99,,2013-05-13 22:42:00,
2013-05-13 17:52:00,80.0,55.0,29.93,WSW,244,5.0,-999.0,43,-99.99,,,-99.99,,2013-05-13 22:52:00,
2013-05-13 18:02:00,81.0,56.0,29.92,WSW,250,3.0,-999.0,43,-99.99,,,-99.99,,2013-05-13 23:02:00,
2013-05-13 18:12:00,81.0,56.0,29.92,WSW,250,3.0,-999.0,43,-99.99,,,-99.99,,2013-05-13 23:12:00,
2013-05-13 18:23:00,81.0,56.0,29.92,SW,225,4.0,-999.0,43,-99.99,,,-99.99,,2013-05-13 23:23:00,
2013-05-13 18:33:00,81.0,57.0,29.92,West,273,4.0,-999.0,44,-99.99,,,-99.99,,2013-05-13 23:33:00,
2013-05-13 18:42:00,81.0,57.0,29.92,West,273,4.0,-999.0,44,-99.99,,,-99.99,,2013-05-13 23:42:00,
2013-05-13 18:54:00,80.0,55.0,29.92,West,271,3.0,-999.0,43,-99.99,,,-99.99,,2013-05-13 23:54:00,
2013-05-13 19:02:00,80.0,56.0,29.91,SSW,196,3.0,-999.0,44,-99.99,,,-99.99,,2013-05-14 00:02:00,
2013-05-13 19:12:00,80.0,56.0,29.91,SSW,196,3.0,-999.0,44,-99.99,,,-99.99,,2013-05-14 00:12:00,
2013-05-13 19:22:00,80.0,57.0,29.91,WSW,247,2.0,-999.0,46,-99.99,,,-99.99,,2013-05-14 00:22:00,
2013-05-13 19:31:00,80.0,57.0,29.91,SSW,204,1.0,-999.0,46,-99.99,,,-99.99,,2013-05-14 00:31:00,
2013-05-13 19:41:00,80.0,57.0,29.91,SSW,204,1.0,-999.0,46,-99.99,,,-99.99,,2013-05-14 00:41:00,
2013-05-13 19:52:00,79.0,58.0,29.91,SSW,207,1.0,-999.0,48,-99.99,,,-99.99,,2013-05-14 00:52:00,
2013-05-13 20:01:00,78.0,58.0,29.92,SSW,207,0.0,-999.0,50,-99.99,,,-99.99,,2013-05-14 01:01:00,
2013-05-13 20:11:00,78.0,58.0,29.92,SSW,207,0.0,-999.0,50,-99.99,,,-99.99,,2013-05-14 01:11:00,
2013-05-13 20:21:00,77.0,58.0,29.91,SSW,207,1.0,-999.0,52,-99.99,,,-99.99,,2013-05-14 01:21:00,
2013-05-13 20:31:00,76.0,59.0,29.91,SSW,207,0.0,-999.0,55,-99.99,,,-99.99,,2013-05-14 01:31:00,
2013-05-13 20:43:00,76.0,59.0,29.91,SSW,207,0.0,-999.0,55,-99.99,,,-99.99,,2013-05-14 01:43:00,
2013-05-13 20:53:00,74.0,58.0,29.91,SSW,207,0.0,-999.0,58,-99.99,,,-99.99,,2013-05-14 01:53:00,
2013-05-13 21:02:00,73.0,59.0,29.91,SSW,207,0.0,-999.0,61,-99.99,,,-99.99,,2013-05-14 02:02:00,
2013-05-13 21:11:00,72.0,59.0,29.91,SSW,207,0.0,-999.0,63,-99.99,,,-99.99,,2013-05-14 02:11:00,
2013-05-13 21:22:00,72.0,59.0,29.91,SSW,207,0.0,-999.0,63,-99.99,,,-99.99,,2013-05-14 02:22:00,
2013-05-13 21:32:00,70.0,58.0,29.91,SSW,207,0.0,-999.0,66,-99.99,,,-99.99,,2013-05-14 02:32:00,
2013-05-13 21:42:00,70.0,58.0,29.91,SSW,207,0.0,-999.0,66,-99.99,,,-99.99,,2013-05-14 02:42:00,
2013-05-13 21:52:00,69.0,58.0,29.91,SSW,207,0.0,-999.0,67,-99.99,,,-99.99,,2013-05-14 02:52:00,
2013-05-13 22:01:00,69.0,58.0,29.92,SSW,207,0.0,-999.0,68,-99.99,,,-99.99,,2013-05-14 03:01:00,
2013-05-13 22:11:00,69.0,58.0,29.92,SSW,207,0.0,-999.0,68,-99.99,,,-99.99,,2013-05-14 03:11:00,
2013-05-13 22:21:00,68.0,57.0,29.92,SSW,207,0.0,-999.0,69,-99.99,,,-99.99,,2013-05-14 03:21:00,
2013-05-13 22:33:00,68.0,58.0,29.92,SSW,207,0.0,-999.0,70,-99.99,,,-99.99,,2013-05-14 03:33:00,
2013-05-13 22:42:00,68.0,58.0,29.92,SSW,207,0.0,-999.0,70,-99.99,,,-99.99,,2013-05-14 03:42:00,
2013-05-13 22:53:00,67.0,57.0,29.92,SSW,207,0.0,-999.0,71,-99.99,,,-99.99,,2013-05-14 03:53:00,
2013-05-13 23:02:00,67.0,58.0,29.92,SSW,207,0.0,-999.0,72,-99.99,,,-99.99,,2013-05-14 04:02:00,
2013-05-13 23:13:00,67.0,58.0,29.92,SSW,207,0.0,-999.0,72,-99.99,,,-99.99,,2013-05-14 04:13:00,
2013-05-13 23:23:00,66.0,57.0,29.92,SSW,207,1.0,-999.0,72,-99.99,,,-99.99,,2013-05-14 04:23:00,
2013-05-13 23:32:00,66.0,57.0,29.92,SSW,207,1.0,-999.0,72,-99.99,,,-99.99,,2013-05-14 04:32:00,
2013-05-13 23:43:00,66.0,57.0,29.92,SSW,207,1.0,-999.0,72,-99.99,,,-99.99,,2013-05-14 04:43:00,
2013-05-13 23:53:00,66.0,57.0,29.91,SSW,207,1.0,-999.0,73,-99.99,,,-99.99,,2013-05-14 04:53:00,